CZ-3B DEB, 40179

Orbit data source: Space-Track

CZ-3B DEB, 40179 is space debris in HEO originally from a launch on Mon, 19 Dec 2011 UTC launched from the Xichang Space Center, China (XSC). Debris objects in space refer to the collection of defunct objects orbiting the Earth. Examples of debris include non-operational satellites, rocket bodies, and fragments generated from explosions, collisions, or faulty payload assembly.

Loading next visibility...
Identifier
40179, 2011-077C
Orbit
HEO
Country
Flag of CNCN / PRC
Related business
Manufacturer
CALT
Mission
Spacecraft
Bus & Motor
Unknown
Mass
Unknown
Launch date (UTC)
2011-12-19 (15 years ago)
Launch vehicle
Unknown
Launch site
Xichang Space Center, China (XSC)
Object type
Payload
Rocket body
Debris
Shape & HBR
Unknown shape, 0.3 m
Radar Cross Section
Medium (>0.1 m² and <1 m²)

Expand to show TLE details & history
Last TLE update: 13 hours ago

TLE from 13 hours ago
0 CZ-3B DEB
1 40179U 11077C   26256.45012079  .00000001  00000-0  29481-2 0  9993
2 40179  25.7348 274.3651 7439933 188.7878 140.8066  1.91936299 89804
Epoch: 2026-09-13T10:48Z
TLE epoch observation values (Epoch: 2026-09-13T10:48:10.436Z)
Latitude
-0.00001°
Longitude
119.8505°
Altitude
39,704.563 km
Speed
1.651 km/s
True Right ascension
18h 17m 21s
True Declination
0° 00' 00"
Sunlit
Object was in daylight at epoch
Visualization orbit readout
Latitude
Unknown
Longitude
Unknown
Altitude
Unknown
Speed
Unknown
Apparent Right ascension
Unknown
Apparent Declination
Unknown
Sunlit
N/A
Visualization observer readout
Local Sidereal Time
16:28:08
Azimuth
Unknown
Elevation
Unknown
Doppler factor
Unknown
Orbital elements
Apogee altitude
41,327.568 km
Perigee altitude
624.745 km
Semi-major axis
27,354.293 km
Eccentricity
0.74399
Inclination
25.7348°
RAAN
274.3651°
Arg. of periapsis
188.7878°
True anomaly
171.19441°
Mean anomaly
140.8066°
Eccentric anomaly
157.27443°
Mean motion
0.47974 °/min
Orbital period
750.41 mins
BSTAR
0.0029481
Loading maneuver chart data...
Computing Atmospheric mass density...
Loading historical data...
Loading historical data...
Loading historical data...
Loading historical data...
Loading historical data...
Loading historical data...
Loading historical data...

Documentation

Showing up to 5 results
|